Year,Month,Day,Hour,Minute,Value (Times are PST for temperature in C)
2016,08,13,00,00,24.70
2016,08,13,00,01,24.60
2016,08,13,00,02,24.60
2016,08,13,00,03,24.60
2016,08,13,00,04,24.60
2016,08,13,00,05,24.60
2016,08,13,00,06,24.60
2016,08,13,00,07,24.50
2016,08,13,00,08,24.50
2016,08,13,00,09,24.50
2016,08,13,00,10,24.50
2016,08,13,00,11,24.50
2016,08,13,00,12,24.50
2016,08,13,00,13,24.50
2016,08,13,00,14,24.50
2016,08,13,00,15,24.50
2016,08,13,00,16,24.50
2016,08,13,00,17,24.50
2016,08,13,00,18,24.50
2016,08,13,00,19,24.50
2016,08,13,00,20,24.50
2016,08,13,00,21,24.50
2016,08,13,00,22,24.50
2016,08,13,00,23,24.50
2016,08,13,00,24,24.40
2016,08,13,00,25,24.40
2016,08,13,00,26,24.40
2016,08,13,00,27,24.40
2016,08,13,00,28,24.40
2016,08,13,00,29,24.40
2016,08,13,00,30,24.30
2016,08,13,00,31,24.30
2016,08,13,00,32,24.30
2016,08,13,00,33,24.30
2016,08,13,00,34,24.30
2016,08,13,00,35,24.30
2016,08,13,00,36,24.30
2016,08,13,00,37,24.30
2016,08,13,00,38,24.30
2016,08,13,00,39,24.30
2016,08,13,00,40,24.30
2016,08,13,00,41,24.30
2016,08,13,00,42,24.20
2016,08,13,00,43,24.20
2016,08,13,00,44,24.20
2016,08,13,00,45,24.20
2016,08,13,00,46,24.20
2016,08,13,00,47,24.20
2016,08,13,00,48,24.10
2016,08,13,00,49,24.10
2016,08,13,00,50,24.10
2016,08,13,00,51,24.10
2016,08,13,00,52,24.10
2016,08,13,00,53,24.10
2016,08,13,00,54,24.10
2016,08,13,00,55,24.10
2016,08,13,00,56,24.00
2016,08,13,00,57,24.00
2016,08,13,00,58,24.10
2016,08,13,00,59,24.10
2016,08,13,01,00,24.10
2016,08,13,01,01,24.10
2016,08,13,01,02,24.10
2016,08,13,01,03,24.10
2016,08,13,01,04,24.10
2016,08,13,01,05,24.10
2016,08,13,01,06,24.10
2016,08,13,01,07,24.10
2016,08,13,01,08,24.10
2016,08,13,01,09,24.00
2016,08,13,01,10,24.00
2016,08,13,01,11,24.00
2016,08,13,01,12,24.00
2016,08,13,01,13,23.90
2016,08,13,01,14,23.90
2016,08,13,01,15,23.90
2016,08,13,01,16,23.80
2016,08,13,01,17,23.80
2016,08,13,01,18,23.80
2016,08,13,01,19,23.80
2016,08,13,01,20,23.70
2016,08,13,01,21,23.70
2016,08,13,01,22,23.70
2016,08,13,01,23,23.60
2016,08,13,01,24,23.60
2016,08,13,01,25,23.60
2016,08,13,01,26,23.50
2016,08,13,01,27,23.50
2016,08,13,01,28,23.50
2016,08,13,01,29,23.50
2016,08,13,01,30,23.40
2016,08,13,01,31,23.40
2016,08,13,01,32,23.40
2016,08,13,01,33,23.40
2016,08,13,01,34,23.40
2016,08,13,01,35,23.40
2016,08,13,01,36,23.40
2016,08,13,01,37,23.50
2016,08,13,01,38,23.50
2016,08,13,01,39,23.50
2016,08,13,01,40,23.50
2016,08,13,01,41,23.50
2016,08,13,01,42,23.50
2016,08,13,01,43,23.50
2016,08,13,01,44,23.50
2016,08,13,01,45,23.50
2016,08,13,01,46,23.60
2016,08,13,01,47,23.60
2016,08,13,01,48,23.60
2016,08,13,01,49,23.60
2016,08,13,01,50,23.70
2016,08,13,01,51,23.70
2016,08,13,01,52,23.70
2016,08,13,01,53,23.70
2016,08,13,01,54,23.70
2016,08,13,01,55,23.70
2016,08,13,01,56,23.70
2016,08,13,01,57,23.70
2016,08,13,01,58,23.70
2016,08,13,01,59,23.70
2016,08,13,02,00,23.60
2016,08,13,02,01,23.60
2016,08,13,02,02,23.60
2016,08,13,02,03,23.60
2016,08,13,02,04,23.60
2016,08,13,02,05,23.70
2016,08,13,02,06,23.70
2016,08,13,02,07,23.70
2016,08,13,02,08,23.70
2016,08,13,02,09,23.60
2016,08,13,02,10,23.60
2016,08,13,02,11,23.60
2016,08,13,02,12,23.70
2016,08,13,02,13,23.70
2016,08,13,02,14,23.60
2016,08,13,02,15,23.60
2016,08,13,02,16,23.60
2016,08,13,02,17,23.60
2016,08,13,02,18,23.60
2016,08,13,02,19,23.60
2016,08,13,02,20,23.60
2016,08,13,02,21,23.50
2016,08,13,02,22,23.50
2016,08,13,02,23,23.50
2016,08,13,02,24,23.40
2016,08,13,02,25,23.40
2016,08,13,02,26,23.40
2016,08,13,02,27,23.40
2016,08,13,02,28,23.30
2016,08,13,02,29,23.30
2016,08,13,02,30,23.30
2016,08,13,02,31,23.30
2016,08,13,02,32,23.30
2016,08,13,02,33,23.30
2016,08,13,02,34,23.20
2016,08,13,02,35,23.20
2016,08,13,02,36,23.20
2016,08,13,02,37,23.20
2016,08,13,02,38,23.20
2016,08,13,02,39,23.20
2016,08,13,02,40,23.20
2016,08,13,02,41,23.20
2016,08,13,02,42,23.20
2016,08,13,02,43,23.20
2016,08,13,02,44,23.20
2016,08,13,02,45,23.20
2016,08,13,02,46,23.10
2016,08,13,02,47,23.20
2016,08,13,02,48,23.20
2016,08,13,02,49,23.10
2016,08,13,02,50,23.10
2016,08,13,02,51,23.10
2016,08,13,02,52,23.10
2016,08,13,02,53,23.10
2016,08,13,02,54,23.10
2016,08,13,02,55,23.10
2016,08,13,02,56,23.10
2016,08,13,02,57,23.10
2016,08,13,02,58,23.10
2016,08,13,02,59,23.10
2016,08,13,03,00,23.00
2016,08,13,03,01,23.00
2016,08,13,03,02,23.00
2016,08,13,03,03,22.90
2016,08,13,03,04,22.90
2016,08,13,03,05,22.90
2016,08,13,03,06,22.80
2016,08,13,03,07,22.80
2016,08,13,03,08,22.80
2016,08,13,03,09,22.80
2016,08,13,03,10,22.70
2016,08,13,03,11,22.70
2016,08,13,03,12,22.70
2016,08,13,03,13,22.60
2016,08,13,03,14,22.60
2016,08,13,03,15,22.60
2016,08,13,03,16,22.60
2016,08,13,03,17,22.60
2016,08,13,03,18,22.60
2016,08,13,03,19,22.60
2016,08,13,03,20,22.50
2016,08,13,03,21,22.50
2016,08,13,03,22,22.50
2016,08,13,03,23,22.50
2016,08,13,03,24,22.40
2016,08,13,03,25,22.40
2016,08,13,03,26,22.40
2016,08,13,03,27,22.40
2016,08,13,03,28,22.40
2016,08,13,03,29,22.40
2016,08,13,03,30,22.40
2016,08,13,03,31,22.40
2016,08,13,03,32,22.40
2016,08,13,03,33,22.40
2016,08,13,03,34,22.40
2016,08,13,03,35,22.30
2016,08,13,03,36,22.30
2016,08,13,03,37,22.30
2016,08,13,03,38,22.30
2016,08,13,03,39,22.30
2016,08,13,03,40,22.30
2016,08,13,03,41,22.30
2016,08,13,03,42,22.30
2016,08,13,03,43,22.20
2016,08,13,03,44,22.20
2016,08,13,03,45,22.20
2016,08,13,03,46,22.10
2016,08,13,03,47,22.10
2016,08,13,03,48,22.10
2016,08,13,03,49,22.00
2016,08,13,03,50,22.00
2016,08,13,03,51,21.90
2016,08,13,03,52,21.90
2016,08,13,03,53,21.80
2016,08,13,03,54,21.80
2016,08,13,03,55,21.80
2016,08,13,03,56,21.70
2016,08,13,03,57,21.70
2016,08,13,03,58,21.70
2016,08,13,03,59,21.60
2016,08,13,04,00,21.60
2016,08,13,04,01,21.50
2016,08,13,04,02,21.50
2016,08,13,04,03,21.40
2016,08,13,04,04,21.40
2016,08,13,04,05,21.30
2016,08,13,04,06,21.30
2016,08,13,04,07,21.30
2016,08,13,04,08,21.20
2016,08,13,04,09,21.20
2016,08,13,04,10,21.20
2016,08,13,04,11,21.20
2016,08,13,04,12,21.20
2016,08,13,04,13,21.10
2016,08,13,04,14,21.10
2016,08,13,04,15,21.10
2016,08,13,04,16,21.10
2016,08,13,04,17,21.10
2016,08,13,04,18,21.10
2016,08,13,04,19,21.10
2016,08,13,04,20,21.10
2016,08,13,04,21,21.10
2016,08,13,04,22,21.10
2016,08,13,04,23,21.10
2016,08,13,04,24,21.10
2016,08,13,04,25,21.10
2016,08,13,04,26,21.10
2016,08,13,04,27,21.10
2016,08,13,04,28,21.10
2016,08,13,04,29,21.20
2016,08,13,04,30,21.20
2016,08,13,04,31,21.10
2016,08,13,04,32,21.10
2016,08,13,04,33,21.10
2016,08,13,04,34,21.10
2016,08,13,04,35,21.00
2016,08,13,04,36,21.00
2016,08,13,04,37,21.00
2016,08,13,04,38,20.90
2016,08,13,04,39,20.90
2016,08,13,04,40,20.90
2016,08,13,04,41,20.90
2016,08,13,04,42,20.90
2016,08,13,04,43,20.90
2016,08,13,04,44,20.80
2016,08,13,04,45,20.80
2016,08,13,04,46,20.80
2016,08,13,04,47,20.80
2016,08,13,04,48,20.80
2016,08,13,04,49,20.70
2016,08,13,04,50,20.70
2016,08,13,04,51,20.70
2016,08,13,04,52,20.70
2016,08,13,04,53,20.70
2016,08,13,04,54,20.70
2016,08,13,04,55,20.60
2016,08,13,04,56,20.60
2016,08,13,04,57,20.60
2016,08,13,04,58,20.60
2016,08,13,04,59,20.60
2016,08,13,05,00,20.50
2016,08,13,05,01,20.50
2016,08,13,05,02,20.50
2016,08,13,05,03,20.40
2016,08,13,05,04,20.40
2016,08,13,05,05,20.40
2016,08,13,05,06,20.40
2016,08,13,05,07,20.30
2016,08,13,05,08,20.30
2016,08,13,05,09,20.30
2016,08,13,05,10,20.30
2016,08,13,05,11,20.30
2016,08,13,05,12,20.20
2016,08,13,05,13,20.20
2016,08,13,05,14,20.20
2016,08,13,05,15,20.20
2016,08,13,05,16,20.20
2016,08,13,05,17,20.20
2016,08,13,05,18,20.10
2016,08,13,05,19,20.10
2016,08,13,05,20,20.10
2016,08,13,05,21,20.10
2016,08,13,05,22,20.10
2016,08,13,05,23,20.10
2016,08,13,05,24,20.10
2016,08,13,05,25,20.10
2016,08,13,05,26,20.10
2016,08,13,05,27,20.10
2016,08,13,05,28,20.10
2016,08,13,05,29,20.10
2016,08,13,05,30,20.10
2016,08,13,05,31,20.20
2016,08,13,05,32,20.20
2016,08,13,05,33,20.20
2016,08,13,05,34,20.20
2016,08,13,05,35,20.20
2016,08,13,05,36,20.20
2016,08,13,05,37,20.20
2016,08,13,05,38,20.20
2016,08,13,05,39,20.20
2016,08,13,05,40,20.20
2016,08,13,05,41,20.20
2016,08,13,05,42,20.20
2016,08,13,05,43,20.20
2016,08,13,05,44,20.30
2016,08,13,05,45,20.30
2016,08,13,05,46,20.30
2016,08,13,05,47,20.30
2016,08,13,05,48,20.30
2016,08,13,05,49,20.30
2016,08,13,05,50,20.40
2016,08,13,05,51,20.40
2016,08,13,05,52,20.40
2016,08,13,05,53,20.50
2016,08,13,05,54,20.50
2016,08,13,05,55,20.60
2016,08,13,05,56,20.60
2016,08,13,05,57,20.60
2016,08,13,05,58,20.70
2016,08,13,05,59,20.70
2016,08,13,06,00,20.70
2016,08,13,06,01,20.70
2016,08,13,06,02,20.70
2016,08,13,06,03,20.70
2016,08,13,06,04,20.70
2016,08,13,06,05,20.70
2016,08,13,06,06,20.70
2016,08,13,06,07,20.70
2016,08,13,06,08,20.70
2016,08,13,06,09,20.60
2016,08,13,06,10,20.60
2016,08,13,06,11,20.60
2016,08,13,06,12,20.60
2016,08,13,06,13,20.60
2016,08,13,06,14,20.60
2016,08,13,06,15,20.60
2016,08,13,06,16,20.50
2016,08,13,06,17,20.50
2016,08,13,06,18,20.50
2016,08,13,06,19,20.50
2016,08,13,06,20,20.40
2016,08,13,06,21,20.40
2016,08,13,06,22,20.40
2016,08,13,06,23,20.40
2016,08,13,06,24,20.50
2016,08,13,06,25,20.50
2016,08,13,06,26,20.50
2016,08,13,06,27,20.50
2016,08,13,06,28,20.50
2016,08,13,06,29,20.50
2016,08,13,06,30,20.50
2016,08,13,06,31,20.60
2016,08,13,06,32,20.60
2016,08,13,06,33,20.60
2016,08,13,06,34,20.60
2016,08,13,06,35,20.60
2016,08,13,06,36,20.60
2016,08,13,06,37,20.60
2016,08,13,06,38,20.60
2016,08,13,06,39,20.60
2016,08,13,06,40,20.60
2016,08,13,06,41,20.60
2016,08,13,06,42,20.60
2016,08,13,06,43,20.50
2016,08,13,06,44,20.50
2016,08,13,06,45,20.50
2016,08,13,06,46,20.50
2016,08,13,06,47,20.50
2016,08,13,06,48,20.50
2016,08,13,06,49,20.50
2016,08,13,06,50,20.40
2016,08,13,06,51,20.40
2016,08,13,06,52,20.40
2016,08,13,06,53,20.40
2016,08,13,06,54,20.40
2016,08,13,06,55,20.40
2016,08,13,06,56,20.40
2016,08,13,06,57,20.40
2016,08,13,06,58,20.40
2016,08,13,06,59,20.40
2016,08,13,07,00,20.40
2016,08,13,07,01,20.40
2016,08,13,07,02,20.30
2016,08,13,07,03,20.30
2016,08,13,07,04,20.30
2016,08,13,07,05,20.30
2016,08,13,07,06,20.30
2016,08,13,07,07,20.30
2016,08,13,07,08,20.30
2016,08,13,07,09,20.30
2016,08,13,07,10,20.40
2016,08,13,07,11,20.40
2016,08,13,07,12,20.40
2016,08,13,07,13,20.40
2016,08,13,07,14,20.40
2016,08,13,07,15,20.40
2016,08,13,07,16,20.40
2016,08,13,07,17,20.40
2016,08,13,07,18,20.40
2016,08,13,07,19,20.50
2016,08,13,07,20,20.50
2016,08,13,07,21,20.50
2016,08,13,07,22,20.50
2016,08,13,07,23,20.50
2016,08,13,07,24,20.50
2016,08,13,07,25,20.50
2016,08,13,07,26,20.50
2016,08,13,07,27,20.60
2016,08,13,07,28,20.60
2016,08,13,07,29,20.60
2016,08,13,07,30,20.60
2016,08,13,07,31,20.60
2016,08,13,07,32,20.60
2016,08,13,07,33,20.60
2016,08,13,07,34,20.60
2016,08,13,07,35,20.70
2016,08,13,07,36,20.70
2016,08,13,07,37,20.70
2016,08,13,07,38,20.70
2016,08,13,07,39,20.80
2016,08,13,07,40,20.80
2016,08,13,07,41,20.80
2016,08,13,07,42,20.80
2016,08,13,07,43,20.90
2016,08,13,07,44,20.90
2016,08,13,07,45,20.90
2016,08,13,07,46,21.00
2016,08,13,07,47,21.00
2016,08,13,07,48,21.10
2016,08,13,07,49,21.10
2016,08,13,07,50,21.10
2016,08,13,07,51,21.10
2016,08,13,07,52,21.20
2016,08,13,07,53,21.20
2016,08,13,07,54,21.20
2016,08,13,07,55,21.20
2016,08,13,07,56,21.30
2016,08,13,07,57,21.30
2016,08,13,07,58,21.30
2016,08,13,07,59,21.40
2016,08,13,08,00,21.40
2016,08,13,08,01,21.40
2016,08,13,08,02,21.50
2016,08,13,08,03,21.50
2016,08,13,08,04,21.50
2016,08,13,08,05,21.60
2016,08,13,08,06,21.60
2016,08,13,08,07,21.60
2016,08,13,08,08,21.60
2016,08,13,08,09,21.70
2016,08,13,08,10,21.70
2016,08,13,08,11,21.70
2016,08,13,08,12,21.70
2016,08,13,08,13,21.80
2016,08,13,08,14,21.80
2016,08,13,08,15,21.80
2016,08,13,08,16,21.80
2016,08,13,08,17,21.80
2016,08,13,08,18,21.80
2016,08,13,08,19,21.80
2016,08,13,08,20,21.80
2016,08,13,08,21,21.80
2016,08,13,08,22,21.80
2016,08,13,08,23,21.80
2016,08,13,08,24,21.80
2016,08,13,08,25,21.80
2016,08,13,08,26,21.80
2016,08,13,08,27,21.80
2016,08,13,08,28,21.80
2016,08,13,08,29,21.70
2016,08,13,08,30,21.70
2016,08,13,08,31,21.70
2016,08,13,08,32,21.60
2016,08,13,08,33,21.60
2016,08,13,08,34,21.60
2016,08,13,08,35,21.60
2016,08,13,08,36,21.60
2016,08,13,08,37,21.60
2016,08,13,08,38,21.70
2016,08,13,08,39,21.70
2016,08,13,08,40,21.80
2016,08,13,08,41,21.80
2016,08,13,08,42,21.80
2016,08,13,08,43,21.80
2016,08,13,08,44,21.80
2016,08,13,08,45,21.90
2016,08,13,08,46,21.90
2016,08,13,08,47,21.90
2016,08,13,08,48,21.90
2016,08,13,08,49,21.90
2016,08,13,08,50,21.90
2016,08,13,08,51,21.90
2016,08,13,08,52,21.80
2016,08,13,08,53,21.80
2016,08,13,08,54,21.80
2016,08,13,08,55,21.80
2016,08,13,08,56,21.80
2016,08,13,08,57,21.80
2016,08,13,08,58,21.70
2016,08,13,08,59,21.70
2016,08,13,09,00,21.70
2016,08,13,09,01,21.80
2016,08,13,09,02,21.80
2016,08,13,09,03,21.80
2016,08,13,09,04,21.80
2016,08,13,09,05,21.80
2016,08,13,09,06,21.80
2016,08,13,09,07,21.80
2016,08,13,09,08,21.80
2016,08,13,09,09,21.80
2016,08,13,09,10,21.80
2016,08,13,09,11,21.90
2016,08,13,09,12,21.90
2016,08,13,09,13,21.90
2016,08,13,09,14,21.90
2016,08,13,09,15,21.90
2016,08,13,09,16,21.90
2016,08,13,09,17,22.00
2016,08,13,09,18,22.00
2016,08,13,09,19,22.10
2016,08,13,09,20,22.10
2016,08,13,09,21,22.10
2016,08,13,09,22,22.10
2016,08,13,09,23,22.20
2016,08,13,09,24,22.20
2016,08,13,09,25,22.20
2016,08,13,09,26,22.20
2016,08,13,09,27,22.20
2016,08,13,09,28,22.20
2016,08,13,09,29,22.20
2016,08,13,09,30,22.30
2016,08,13,09,31,22.30
2016,08,13,09,32,22.30
2016,08,13,09,33,22.30
2016,08,13,09,34,22.30
2016,08,13,09,35,22.30
2016,08,13,09,36,22.30
2016,08,13,09,37,22.30
2016,08,13,09,38,22.30
2016,08,13,09,39,22.30
2016,08,13,09,40,22.30
2016,08,13,09,41,22.30
2016,08,13,09,42,22.20
2016,08,13,09,43,22.20
2016,08,13,09,44,22.10
2016,08,13,09,45,22.10
2016,08,13,09,46,22.00
2016,08,13,09,47,22.00
2016,08,13,09,48,21.90
2016,08,13,09,49,21.90
2016,08,13,09,50,21.90
2016,08,13,09,51,21.90
2016,08,13,09,52,21.80
2016,08,13,09,53,21.80
2016,08,13,09,54,21.80
2016,08,13,09,55,21.80
2016,08,13,09,56,21.80
2016,08,13,09,57,21.80
2016,08,13,09,58,21.80
2016,08,13,09,59,21.80
2016,08,13,10,00,21.80
2016,08,13,10,01,21.90
2016,08,13,10,02,21.90
2016,08,13,10,03,22.00
2016,08,13,10,04,22.00
2016,08,13,10,05,22.10
2016,08,13,10,06,22.20
2016,08,13,10,07,22.20
2016,08,13,10,08,22.20
2016,08,13,10,09,22.20
2016,08,13,10,10,22.20
2016,08,13,10,11,22.20
2016,08,13,10,12,22.20
2016,08,13,10,13,22.10
2016,08,13,10,14,22.10
2016,08,13,10,15,22.10
2016,08,13,10,16,22.00
2016,08,13,10,17,22.00
2016,08,13,10,18,21.90
2016,08,13,10,19,21.90
2016,08,13,10,20,21.80
2016,08,13,10,21,21.80
2016,08,13,10,22,21.70
2016,08,13,10,23,21.70
2016,08,13,10,24,21.70
2016,08,13,10,25,21.60
2016,08,13,10,26,21.60
2016,08,13,10,27,21.60
2016,08,13,10,28,21.60
2016,08,13,10,29,21.60
2016,08,13,10,30,21.60
2016,08,13,10,31,21.60
2016,08,13,10,32,21.60
2016,08,13,10,33,21.70
2016,08,13,10,34,21.70
2016,08,13,10,35,21.80
2016,08,13,10,36,21.90
2016,08,13,10,37,21.90
2016,08,13,10,38,22.00
2016,08,13,10,39,22.10
2016,08,13,10,40,22.10
2016,08,13,10,41,22.20
2016,08,13,10,42,22.30
2016,08,13,10,43,22.40
2016,08,13,10,44,22.50
2016,08,13,10,45,22.60
2016,08,13,10,46,22.70
2016,08,13,10,47,22.70
2016,08,13,10,48,22.70
2016,08,13,10,49,22.70
2016,08,13,10,50,22.70
2016,08,13,10,51,22.60
2016,08,13,10,52,22.60
2016,08,13,10,53,22.60
2016,08,13,10,54,22.50
2016,08,13,10,55,22.50
2016,08,13,10,56,22.50
2016,08,13,10,57,22.50
2016,08,13,10,58,22.50
2016,08,13,10,59,22.40
2016,08,13,11,00,22.40
2016,08,13,11,01,22.40
2016,08,13,11,02,22.30
2016,08,13,11,03,22.30
2016,08,13,11,04,22.30
2016,08,13,11,05,22.30
2016,08,13,11,06,22.30
2016,08,13,11,07,22.30
2016,08,13,11,08,22.30
2016,08,13,11,09,22.30
2016,08,13,11,10,22.30
2016,08,13,11,11,22.20
2016,08,13,11,12,22.20
2016,08,13,11,13,22.20
2016,08,13,11,14,22.20
2016,08,13,11,15,22.20
2016,08,13,11,16,22.20
2016,08,13,11,17,22.20
2016,08,13,11,18,22.20
2016,08,13,11,19,22.10
2016,08,13,11,20,22.20
2016,08,13,11,21,22.20
2016,08,13,11,22,22.20
2016,08,13,11,23,22.10
2016,08,13,11,24,22.10
2016,08,13,11,25,22.10
2016,08,13,11,26,22.10
2016,08,13,11,27,22.10
2016,08,13,11,28,22.00
2016,08,13,11,29,22.00
2016,08,13,11,30,21.90
2016,08,13,11,31,21.90
2016,08,13,11,32,22.00
2016,08,13,11,33,22.00
2016,08,13,11,34,22.00
2016,08,13,11,35,22.00
2016,08,13,11,36,22.00
2016,08,13,11,37,22.00
2016,08,13,11,38,22.00
2016,08,13,11,39,22.00
2016,08,13,11,40,22.00
2016,08,13,11,41,22.00
2016,08,13,11,42,22.00
2016,08,13,11,43,21.90
2016,08,13,11,44,21.90
2016,08,13,11,45,21.90
2016,08,13,11,46,21.90
2016,08,13,11,47,22.00
2016,08,13,11,48,22.10
2016,08,13,11,49,22.10
2016,08,13,11,50,22.20
2016,08,13,11,51,22.20
2016,08,13,11,52,22.30
2016,08,13,11,53,22.30
2016,08,13,11,54,22.30
2016,08,13,11,55,22.40
2016,08,13,11,56,22.50
2016,08,13,11,57,22.60
2016,08,13,11,58,22.70
2016,08,13,11,59,22.70
2016,08,13,12,00,22.80
2016,08,13,12,01,22.80
2016,08,13,12,02,22.80
2016,08,13,12,03,22.80
2016,08,13,12,04,22.80
2016,08,13,12,05,22.80
2016,08,13,12,06,22.70
2016,08,13,12,07,22.70
2016,08,13,12,08,22.70
2016,08,13,12,09,22.60
2016,08,13,12,10,22.60
2016,08,13,12,11,22.70
2016,08,13,12,12,22.70
2016,08,13,12,13,22.70
2016,08,13,12,14,22.60
2016,08,13,12,15,22.60
2016,08,13,12,16,22.60
2016,08,13,12,17,22.70
2016,08,13,12,18,22.70
2016,08,13,12,19,22.70
2016,08,13,12,20,22.70
2016,08,13,12,21,22.70
2016,08,13,12,22,22.80
2016,08,13,12,23,22.80
2016,08,13,12,24,22.80
2016,08,13,12,25,22.90
2016,08,13,12,26,22.90
2016,08,13,12,27,23.00
2016,08,13,12,28,23.00
2016,08,13,12,29,23.10
2016,08,13,12,30,23.10
2016,08,13,12,31,23.10
2016,08,13,12,32,23.10
2016,08,13,12,33,23.10
2016,08,13,12,34,23.10
2016,08,13,12,35,23.10
2016,08,13,12,36,23.10
2016,08,13,12,37,23.10
2016,08,13,12,38,23.10
2016,08,13,12,39,23.10
2016,08,13,12,40,23.10
2016,08,13,12,41,23.00
2016,08,13,12,42,23.00
2016,08,13,12,43,22.90
2016,08,13,12,44,22.90
2016,08,13,12,45,23.00
2016,08,13,12,46,23.10
2016,08,13,12,47,23.10
2016,08,13,12,48,23.20
2016,08,13,12,49,23.30
2016,08,13,12,50,23.30
2016,08,13,12,51,23.40
2016,08,13,12,52,23.40
2016,08,13,12,53,23.50
2016,08,13,12,54,23.50
2016,08,13,12,55,23.50
2016,08,13,12,56,23.40
2016,08,13,12,57,23.40
2016,08,13,12,58,23.50
2016,08,13,12,59,23.50
2016,08,13,13,00,23.50
2016,08,13,13,01,23.60
2016,08,13,13,02,23.70
2016,08,13,13,03,23.70
2016,08,13,13,04,23.80
2016,08,13,13,05,23.90
2016,08,13,13,06,23.90
2016,08,13,13,07,24.00
2016,08,13,13,08,24.00
2016,08,13,13,09,24.00
2016,08,13,13,10,24.10
2016,08,13,13,11,24.10
2016,08,13,13,12,24.10
2016,08,13,13,13,24.10
2016,08,13,13,14,24.20
2016,08,13,13,15,24.20
2016,08,13,13,16,24.30
2016,08,13,13,17,24.40
2016,08,13,13,18,24.40
2016,08,13,13,19,24.40
2016,08,13,13,20,24.40
2016,08,13,13,21,24.40
2016,08,13,13,22,24.40
2016,08,13,13,23,24.30
2016,08,13,13,24,24.30
2016,08,13,13,25,24.30
2016,08,13,13,26,24.40
2016,08,13,13,27,24.40
2016,08,13,13,28,24.40
2016,08,13,13,29,24.50
2016,08,13,13,30,24.50
2016,08,13,13,31,24.50
2016,08,13,13,32,24.40
2016,08,13,13,33,24.40
2016,08,13,13,34,24.40
2016,08,13,13,35,24.40
2016,08,13,13,36,24.40
2016,08,13,13,37,24.40
2016,08,13,13,38,24.40
2016,08,13,13,39,24.40
2016,08,13,13,40,24.40
2016,08,13,13,41,24.50
2016,08,13,13,42,24.50
2016,08,13,13,43,24.60
2016,08,13,13,44,24.60
2016,08,13,13,45,24.70
2016,08,13,13,46,24.70
2016,08,13,13,47,24.70
2016,08,13,13,48,24.70
2016,08,13,13,49,24.60
2016,08,13,13,50,24.60
2016,08,13,13,51,24.60
2016,08,13,13,52,24.50
2016,08,13,13,53,24.50
2016,08,13,13,54,24.50
2016,08,13,13,55,24.50
2016,08,13,13,56,24.50
2016,08,13,13,57,24.40
2016,08,13,13,58,24.50
2016,08,13,13,59,24.50
2016,08,13,14,00,24.60
2016,08,13,14,01,24.70
2016,08,13,14,02,24.70
2016,08,13,14,03,24.80
2016,08,13,14,04,24.80
2016,08,13,14,05,24.90
2016,08,13,14,06,25.00
2016,08,13,14,07,24.90
2016,08,13,14,08,24.90
2016,08,13,14,09,24.80
2016,08,13,14,10,24.80
2016,08,13,14,11,24.80
2016,08,13,14,12,24.90
2016,08,13,14,13,24.90
2016,08,13,14,14,24.90
2016,08,13,14,15,24.90
2016,08,13,14,16,24.90
2016,08,13,14,17,24.90
2016,08,13,14,18,25.00
2016,08,13,14,19,25.10
2016,08,13,14,20,25.10
2016,08,13,14,21,25.20
2016,08,13,14,22,25.20
2016,08,13,14,23,25.20
2016,08,13,14,24,25.30
2016,08,13,14,25,25.30
2016,08,13,14,26,25.30
2016,08,13,14,27,25.30
2016,08,13,14,28,25.30
2016,08,13,14,29,25.30
2016,08,13,14,30,25.30
2016,08,13,14,31,25.30
2016,08,13,14,32,25.30
2016,08,13,14,33,25.40
2016,08,13,14,34,25.40
2016,08,13,14,35,25.40
2016,08,13,14,36,25.50
2016,08,13,14,37,25.50
2016,08,13,14,38,25.60
2016,08,13,14,39,25.70
2016,08,13,14,40,25.80
2016,08,13,14,41,25.80
2016,08,13,14,42,25.90
2016,08,13,14,43,25.90
2016,08,13,14,44,25.90
2016,08,13,14,45,26.00
2016,08,13,14,46,26.00
2016,08,13,14,47,26.00
2016,08,13,14,48,26.00
2016,08,13,14,49,26.00
2016,08,13,14,50,26.00
2016,08,13,14,51,25.90
2016,08,13,14,52,25.90
2016,08,13,14,53,25.80
2016,08,13,14,54,25.80
2016,08,13,14,55,25.80
2016,08,13,14,56,25.70
2016,08,13,14,57,25.70
2016,08,13,14,58,25.70
2016,08,13,14,59,25.70
2016,08,13,15,00,25.80
2016,08,13,15,01,25.80
2016,08,13,15,02,25.90
2016,08,13,15,03,26.00
2016,08,13,15,04,26.00
2016,08,13,15,05,26.00
2016,08,13,15,06,26.10
2016,08,13,15,07,26.10
2016,08,13,15,08,26.20
2016,08,13,15,09,26.20
2016,08,13,15,10,26.20
2016,08,13,15,11,26.20
2016,08,13,15,12,26.20
2016,08,13,15,13,26.20
2016,08,13,15,14,26.10
2016,08,13,15,15,26.10
2016,08,13,15,16,26.10
2016,08,13,15,17,26.10
2016,08,13,15,18,26.10
2016,08,13,15,19,26.20
2016,08,13,15,20,26.20
2016,08,13,15,21,26.20
2016,08,13,15,22,26.30
2016,08,13,15,23,26.30
2016,08,13,15,24,26.40
2016,08,13,15,25,26.40
2016,08,13,15,26,26.50
2016,08,13,15,27,26.50
2016,08,13,15,28,26.50
2016,08,13,15,29,26.50
2016,08,13,15,30,26.40
2016,08,13,15,31,26.40
2016,08,13,15,32,26.40
2016,08,13,15,33,26.50
2016,08,13,15,34,26.50
2016,08,13,15,35,26.50
2016,08,13,15,36,26.50
2016,08,13,15,37,26.60
2016,08,13,15,38,26.60
2016,08,13,15,39,26.70
2016,08,13,15,40,26.80
2016,08,13,15,41,26.90
2016,08,13,15,42,26.90
2016,08,13,15,43,26.90
2016,08,13,15,44,26.90
2016,08,13,15,45,26.90
2016,08,13,15,46,26.90
2016,08,13,15,47,26.80
2016,08,13,15,48,26.80
2016,08,13,15,49,26.70
2016,08,13,15,50,26.60
2016,08,13,15,51,26.50
2016,08,13,15,52,26.50
2016,08,13,15,53,26.40
2016,08,13,15,54,26.40
2016,08,13,15,55,26.40
2016,08,13,15,56,26.30
2016,08,13,15,57,26.30
2016,08,13,15,58,26.30
2016,08,13,15,59,26.30
2016,08,13,16,00,26.30
2016,08,13,16,01,26.30
2016,08,13,16,02,26.40
2016,08,13,16,03,26.40
2016,08,13,16,04,26.40
2016,08,13,16,05,26.40
2016,08,13,16,06,26.40
2016,08,13,16,07,26.50
2016,08,13,16,08,26.60
2016,08,13,16,09,26.60
2016,08,13,16,10,26.70
2016,08,13,16,11,26.70
2016,08,13,16,12,26.80
2016,08,13,16,13,26.90
2016,08,13,16,14,27.00
2016,08,13,16,15,27.10
2016,08,13,16,16,27.20
2016,08,13,16,17,27.30
2016,08,13,16,18,27.40
2016,08,13,16,19,27.40
2016,08,13,16,20,27.40
2016,08,13,16,21,27.40
2016,08,13,16,22,27.40
2016,08,13,16,23,27.40
2016,08,13,16,24,27.40
2016,08,13,16,25,27.40
2016,08,13,16,26,27.50
2016,08,13,16,27,27.50
2016,08,13,16,28,27.60
2016,08,13,16,29,27.70
2016,08,13,16,30,27.80
2016,08,13,16,31,27.80
2016,08,13,16,32,27.90
2016,08,13,16,33,28.00
2016,08,13,16,34,28.10
2016,08,13,16,35,28.10
2016,08,13,16,36,28.10
2016,08,13,16,37,28.10
2016,08,13,16,38,28.10
2016,08,13,16,39,28.10
2016,08,13,16,40,28.20
2016,08,13,16,41,28.20
2016,08,13,16,42,28.20
2016,08,13,16,43,28.30
2016,08,13,16,44,28.30
2016,08,13,16,45,28.30
2016,08,13,16,46,28.30
2016,08,13,16,47,28.40
2016,08,13,16,48,28.40
2016,08,13,16,49,28.50
2016,08,13,16,50,28.50
2016,08,13,16,51,28.60
2016,08,13,16,52,28.60
2016,08,13,16,53,28.50
2016,08,13,16,54,28.50
2016,08,13,16,55,28.50
2016,08,13,16,56,28.50
2016,08,13,16,57,28.60
2016,08,13,16,58,28.60
2016,08,13,16,59,28.60
2016,08,13,17,00,28.60
2016,08,13,17,01,28.60
2016,08,13,17,02,28.60
2016,08,13,17,03,28.60
2016,08,13,17,04,28.60
2016,08,13,17,05,28.60
2016,08,13,17,06,28.60
2016,08,13,17,07,28.60
2016,08,13,17,08,28.70
2016,08,13,17,09,28.70
2016,08,13,17,10,28.70
2016,08,13,17,11,28.70
2016,08,13,17,12,28.70
2016,08,13,17,13,28.60
2016,08,13,17,14,28.60
2016,08,13,17,15,28.60
2016,08,13,17,16,28.50
2016,08,13,17,17,28.40
2016,08,13,17,18,28.40
2016,08,13,17,19,28.40